Wind_Speed
7 7 7 7 8 10 10 9 8 7 7 8 8 7 6 6 6 7 8 8 9 12 12 12 15 19 24 25 20 13 8 13 10 10 10 13 17 24 29 29 29 25 24 17 16
8 7 6 7 8 10 10 9 8 7 7 8 8 7 7 7 8 10 10 8 9 11 12 13 12 15 18 23 19 11 8 14 7 10 16 9 16 21 30 34 28 28 20 15 16
8 8 7 7 9 10 10 9 8 9 8 9 10 9 8 7 9 8 7 7 7 8 8 9 11 12 20 25 19 12 4 9 8 14 17 21 22 29 36 39 27 25 20 16 15
7 8 7 7 9 10 10 10 9 9 10 11 11 9 8 7 6 5 7 6 5 3 4 4 4 10 18 22 20 11 6 9 14 17 23 26 30 34 39 39 29 21 16 16 16
7 8 8 7 9 11 10 11 11 11 11 11 10 9 8 9 7 5 6 7 4 2 1 2 3 8 11 13 7 4 14 12 14 13 18 20 25 18 24 25 25 20 17 14 17
7 7 9 10 11 11 12 12 11 11 10 10 10 9 8 8 7 5 7 8 7 3 2 2 6 9 6 5 5 10 10 13 10 12 13 8 12 12 19 22 21 20 16 13 16
7 8 11 12 13 13 12 11 10 10 10 10 9 8 7 7 8 6 3 5 4 3 2 4 3 5 5 6 11 6 8 11 19 13 12 15 12 19 19 18 13 19 16 15 15
8 10 12 14 13 12 11 10 10 11 10 10 10 9 8 7 7 7 6 5 4 5 3 4 5 6 7 4 4 9 3 4 9 20 18 21 21 27 21 15 21 20 17 14 18
10 12 14 14 12 11 11 10 11 11 9 8 7 6 7 6 6 7 6 6 6 5 5 6 8 10 10 8 13 13 8 12 12 12 15 23 26 27 30 24 20 14 15 19 24
12 15 14 13 12 11 10 9 9 9 9 9 7 4 5 5 6 6 6 7 7 8 8 8 11 13 13 13 13 11 9 14 15 12 18 18 17 25 27 31 31 23 18 20 27
14 15 14 13 12 11 10 9 8 7 6 5 6 7 6 5 5 7 7 7 8 10 10 12 14 13 13 15 13 10 10 15 19 25 25 16 22 26 26 31 32 30 26 25 26
14 16 15 14 13 12 12 13 10 9 8 7 7 7 7 8 5 6 6 8 9 11 13 13 14 13 8 12 17 15 17 20 25 30 32 34 32 33 40 44 41 36 32 33 35
13 15 15 15 14 14 14 11 9 10 9 10 10 9 10 9 6 8 9 9 10 12 11 14 13 11 10 14 19 20 20 25 31 35 41 42 41 37 43 45 40 38 37 37 35
13 14 14 15 16 15 14 12 13 12 11 11 11 11 13 9 7 7 8 9 9 8 10 14 12 13 14 16 18 21 23 25 25 27 27 31 39 36 43 47 45 40 41 38 39
12 13 13 14 13 14 14 13 14 12 12 11 8 10 11 9 7 9 7 7 10 9 9 14 13 15 16 19 17 16 16 19 18 18 21 20 29 29 32 32 32 34 36 39 42
12 12 13 12 11 10 12 13 12 13 13 10 9 9 9 10 6 10 9 8 11 11 13 14 15 19 16 14 15 20 17 13 18 15 15 20 23 24 24 26 29 33 38 45 49
12 13 13 12 11 15 15 11 11 13 15 13 10 5 6 9 7 7 7 9 11 11 14 15 14 16 16 15 15 18 22 15 14 14 12 19 20 23 25 26 32 36 42 46 49
14 13 13 13 15 14 12 11 11 17 16 13 10 8 8 9 9 10 7 12 11 10 12 16 17 17 18 18 16 19 18 17 15 15 15 18 21 25 30 33 36 38 42 46 51
16 14 14 15 14 13 13 12 19 19 16 18 13 14 13 12 14 14 13 13 8 11 13 16 18 18 19 18 18 20 23 23 21 17 14 19 24 29 32 33 38 43 46 49 52
19 16 16 16 15 13 14 16 21 20 22 20 16 13 16 15 15 20 20 16 17 16 15 17 17 19 22 21 22 22 24 24 24 22 18 17 22 26 29 34 39 42 43 45 47
22 19 19 17 16 16 16 19 23 23 20 23 23 21 18 22 22 24 22 21 22 22 20 21 17 19 25 24 23 23 25 25 22 22 22 18 16 25 32 36 41 43 44 46 49
28 25 22 20 19 19 23 25 25 25 24 24 26 27 26 25 25 25 22 23 26 23 21 21 19 17 21 25 25 25 26 25 24 21 24 26 23 28 34 39 42 44 45 48 51
33 31 31 28 24 25 28 28 28 26 24 23 24 23 23 24 26 28 24 24 23 23 21 20 18 18 21 25 26 24 26 27 27 25 22 26 26 31 33 34 37 42 47 51 53
36 36 37 32 31 29 29 30 30 30 28 26 25 24 23 23 24 25 23 25 22 20 21 20 21 20 19 24 27 25 24 27 30 29 26 28 30 34 35 38 42 45 47 51 53
37 37 38 34 34 31 30 30 33 32 34 30 27 27 25 24 24 23 24 21 20 17 19 21 21 22 22 24 26 29 28 26 29 30 31 31 31 34 35 39 43 46 49 52 54
36 36 37 36 35 32 31 29 32 33 34 33 30 28 30 25 23 24 22 22 21 19 18 19 20 22 22 25 25 24 26 28 28 26 27 31 32 33 36 40 44 47 49 51 52
38 36 37 37 36 35 35 34 33 34 36 37 32 33 32 24 25 22 24 25 21 19 20 21 20 20 20 25 25 24 25 26 25 23 27 32 31 32 34 38 42 45 48 51 55
Wind_Direction
183 184 187 189 192 193 190 190 195 202 213 212 206 199 183 171 154 135 133 126 120 111 112 125 133 133 141 141 148 140 85 36 36 307 340 344 321 312 312 323 332 332 331 346 322
190 190 193 198 196 195 197 202 209 207 189 177 175 168 159 153 149 145 140 134 135 128 131 129 132 142 150 162 160 134 89 75 349 321 317 295 290 296 311 316 324 325 325 337 334
194 199 202 199 195 197 201 207 190 182 175 167 157 151 150 154 152 148 145 152 146 143 150 159 154 163 166 176 183 192 186 142 273 275 277 282 279 292 298 301 316 317 319 322 329
199 200 204 200 193 193 189 178 177 172 158 151 150 147 146 148 153 159 155 159 140 155 184 210 193 202 194 191 204 214 251 285 244 250 265 272 276 280 293 300 301 308 310 318 331
206 203 202 194 181 176 175 167 161 157 154 150 147 147 145 148 149 162 174 146 132 139 214 273 314 281 253 238 216 237 241 276 296 290 286 280 280 290 296 288 297 306 318 327 328
201 199 190 178 172 169 164 160 160 159 156 151 149 150 151 154 151 180 194 161 149 165 246 340 289 283 298 308 292 247 271 288 290 298 285 271 271 324 310 298 293 300 301 313 319
194 185 175 172 169 166 164 163 161 157 153 149 147 152 158 170 170 171 188 156 163 211 208 259 275 315 306 321 345 294 258 293 302 293 283 305 285 311 319 293 278 287 292 301 305
186 177 171 169 169 168 167 163 159 158 159 155 155 160 162 160 167 170 171 167 199 235 251 294 307 283 272 298 222 223 221 200 312 304 307 305 298 305 310 309 301 286 282 291 298
179 174 172 172 172 169 166 167 168 166 160 155 159 165 164 162 194 199 195 206 220 241 263 274 277 270 272 245 243 248 230 251 258 288 288 275 283 300 303 314 311 275 284 299 303
177 176 177 176 174 172 172 172 179 180 174 168 168 177 197 190 219 222 222 224 233 250 258 270 273 269 264 266 255 256 265 287 278 301 285 292 294 297 302 308 305 289 288 295 294
179 181 182 182 182 182 179 175 178 184 188 197 204 195 238 224 240 245 244 251 250 252 259 276 283 279 277 264 250 234 246 261 277 281 275 276 270 286 286 297 300 295 295 290 289
185 188 190 192 192 192 194 199 205 210 217 217 226 237 245 246 251 253 259 256 263 259 263 262 260 269 260 270 282 289 279 264 264 268 282 287 279 284 288 290 294 298 297 296 295
191 196 201 204 205 209 218 221 226 231 244 248 247 248 261 249 243 256 256 258 258 269 275 273 273 272 264 259 272 281 279 274 267 257 266 271 273 275 281 290 292 297 300 298 307
196 201 207 212 217 221 229 228 235 244 246 254 268 267 265 266 254 258 258 266 281 290 288 281 291 300 290 291 278 281 285 287 282 278 268 263 264 261 272 278 285 290 288 299 306
200 206 214 222 227 231 240 238 243 249 254 247 244 241 243 256 263 262 269 274 274 276 264 276 294 285 292 284 288 290 293 294 292 282 275 260 260 263 264 269 273 279 293 296 298
214 215 218 223 226 230 237 247 249 253 250 241 247 252 253 257 247 267 270 269 273 276 279 283 288 291 303 296 308 301 303 291 299 296 281 276 279 279 272 272 277 284 290 292 296
223 228 228 226 216 220 224 224 239 243 246 243 237 251 260 258 262 253 240 264 272 290 289 287 283 292 306 317 321 311 314 316 296 291 276 274 280 286 291 285 287 288 291 295 297
228 234 235 235 232 233 231 221 217 228 237 260 278 275 290 285 263 242 241 270 276 297 290 296 298 310 308 315 313 304 318 317 311 301 297 281 270 270 281 285 288 288 290 291 296
228 234 240 238 238 238 228 212 216 231 239 237 260 277 284 294 291 290 292 286 300 320 307 304 308 309 307 319 312 317 314 313 311 307 293 278 271 273 275 278 278 280 283 288 295
231 232 238 242 242 234 230 215 223 225 220 237 232 241 252 256 259 272 282 302 305 309 314 303 308 309 306 312 311 314 309 307 307 303 294 287 286 285 291 292 293 296 300 302 307
230 230 238 242 245 237 231 221 224 231 228 232 239 244 252 252 264 268 284 301 302 302 307 300 300 302 307 307 308 309 305 306 305 303 301 295 277 291 289 291 299 307 311 311 308
235 233 235 244 243 239 234 233 235 239 232 235 241 242 250 254 265 270 285 284 287 297 296 295 299 302 299 304 308 310 308 310 306 305 303 305 312 296 300 307 311 312 308 309 316
237 238 238 234 237 239 239 239 241 243 245 232 238 241 247 255 257 269 275 279 285 291 292 292 295 300 304 305 305 307 308 308 306 302 298 296 304 298 304 306 304 307 316 319 317
236 239 240 241 242 244 245 242 242 248 254 252 244 244 241 245 251 259 266 274 282 288 287 289 293 299 304 309 312 311 305 307 303 301 305 302 306 309 313 315 314 314 315 315 317
236 239 245 243 244 246 247 247 244 243 247 247 252 245 243 245 253 261 269 276 282 278 274 282 288 297 300 305 309 316 316 309 301 301 304 303 302 308 311 311 313 316 317 318 318
237 236 239 242 242 242 245 243 246 252 257 256 249 251 248 248 253 264 269 267 265 266 268 276 285 295 303 303 306 310 302 300 302 301 292 297 302 307 310 314 314 314 315 317 315
240 239 238 239 238 240 238 238 237 238 244 248 248 243 247 249 252 258 267 270 270 267 271 277 283 292 303 309 312 308 312 301 301 296 291 293 303 304 309 308 310 315 318 320 324
Height
5899 5901 5902 5903 5904 5905 5906 5907 5908 5910 5911 5912 5912 5913 5914 5915 5916 5916 5918 5920 5920 5921 5922 5923 5923 5923 5924 5926 5926 5926 5925 5924 5920 5917 5919 5917 5917 5915 5915 5915 5914 5913 5909 5910 5907
5899 5900 5901 5902 5903 5904 5905 5906 5908 5909 5910 5911 5912 5913 5914 5915 5916 5916 5918 5920 5920 5921 5922 5923 5925 5926 5926 5927 5926 5924 5925 5926 5925 5923 5922 5921 5919 5919 5917 5913 5914 5913 5912 5912 5909
5898 5900 5900 5901 5902 5903 5904 5905 5907 5908 5910 5911 5912 5913 5915 5915 5917 5917 5918 5920 5921 5921 5922 5923 5924 5925 5926 5925 5924 5924 5923 5926 5927 5927 5926 5926 5923 5919 5915 5912 5915 5912 5911 5910 5908
5897 5899 5900 5900 5901 5902 5903 5905 5906 5908 5910 5911 5912 5914 5915 5916 5919 5918 5919 5921 5920 5921 5922 5922 5922 5923 5924 5924 5924 5924 5921 5924 5926 5925 5925 5925 5923 5921 5915 5912 5910 5911 5909 5906 5905
5897 5898 5899 5900 5900 5901 5903 5904 5906 5908 5910 5911 5913 5914 5915 5916 5918 5919 5921 5920 5921 5922 5922 5923 5924 5924 5923 5923 5922 5922 5921 5922 5922 5923 5923 5920 5920 5921 5909 5908 5907 5908 5907 5907 5903
5896 5897 5898 5899 5900 5901 5903 5904 5906 5908 5910 5911 5913 5914 5916 5918 5918 5920 5920 5919 5920 5921 5922 5923 5924 5923 5922 5921 5921 5921 5921 5921 5921 5919 5919 5918 5917 5917 5911 5906 5907 5906 5906 5906 5903
5895 5896 5897 5899 5900 5901 5903 5904 5906 5908 5910 5911 5913 5915 5916 5918 5917 5919 5920 5919 5920 5921 5921 5923 5923 5922 5920 5920 5920 5920 5920 5918 5916 5917 5915 5914 5914 5911 5910 5907 5906 5905 5905 5903 5902
5895 5896 5897 5899 5900 5901 5903 5904 5906 5908 5909 5911 5913 5914 5915 5916 5918 5918 5919 5919 5920 5921 5920 5920 5920 5919 5918 5919 5919 5918 5918 5917 5914 5910 5912 5910 5909 5907 5906 5905 5904 5904 5901 5900 5898
5894 5895 5897 5899 5900 5902 5903 5905 5906 5908 5910 5912 5913 5914 5915 5916 5917 5918 5918 5918 5919 5919 5919 5919 5917 5916 5915 5915 5914 5914 5914 5911 5910 5909 5908 5906 5906 5903 5900 5900 5899 5899 5900 5898 5894
5893 5895 5897 5899 5900 5902 5904 5905 5907 5908 5909 5911 5912 5915 5915 5915 5916 5915 5916 5916 5916 5916 5917 5916 5915 5913 5912 5912 5912 5912 5911 5908 5908 5907 5905 5903 5901 5900 5896 5895 5894 5894 5895 5895 5892
5892 5894 5896 5898 5899 5901 5904 5905 5908 5909 5910 5911 5912 5912 5913 5913 5913 5913 5914 5914 5914 5914 5913 5912 5912 5911 5911 5910 5908 5908 5909 5909 5905 5904 5901 5899 5897 5896 5894 5891 5891 5890 5889 5887 5885
5891 5893 5894 5896 5898 5900 5902 5903 5905 5907 5908 5909 5910 5911 5911 5911 5911 5911 5912 5912 5911 5910 5910 5910 5909 5909 5908 5906 5904 5905 5905 5906 5905 5901 5899 5895 5893 5891 5888 5885 5886 5885 5883 5880 5875
5889 5891 5893 5894 5897 5898 5900 5903 5905 5905 5907 5908 5908 5908 5908 5909 5909 5908 5909 5908 5908 5908 5908 5907 5907 5904 5905 5904 5901 5900 5900 5898 5897 5897 5894 5892 5890 5886 5885 5880 5878 5878 5876 5872 5868
5886 5888 5890 5892 5895 5896 5897 5900 5900 5903 5905 5906 5905 5906 5905 5905 5906 5905 5905 5906 5906 5906 5904 5904 5903 5901 5901 5900 5898 5896 5894 5893 5891 5889 5889 5887 5884 5885 5879 5876 5875 5873 5869 5864 5861
5884 5885 5887 5890 5892 5894 5896 5897 5898 5900 5902 5903 5902 5902 5902 5903 5903 5902 5902 5902 5902 5902 5902 5901 5900 5898 5897 5895 5895 5892 5890 5887 5885 5883 5882 5881 5877 5876 5874 5873 5870 5865 5862 5858 5855
5882 5883 5885 5887 5889 5892 5893 5893 5896 5898 5897 5899 5898 5898 5898 5898 5900 5899 5899 5900 5899 5899 5898 5898 5897 5895 5895 5892 5890 5887 5886 5883 5880 5879 5877 5874 5872 5870 5870 5867 5864 5860 5856 5852 5847
5878 5880 5882 5884 5886 5886 5887 5890 5894 5893 5892 5893 5893 5894 5895 5895 5896 5896 5897 5896 5896 5897 5895 5894 5894 5892 5890 5889 5885 5882 5880 5880 5878 5875 5874 5871 5868 5864 5861 5860 5857 5855 5848 5843 5838
5875 5877 5878 5880 5881 5883 5886 5888 5889 5888 5888 5887 5889 5891 5892 5891 5893 5893 5893 5892 5893 5894 5891 5889 5889 5888 5886 5885 5882 5879 5878 5876 5873 5872 5870 5866 5863 5861 5857 5854 5851 5845 5841 5836 5833
5871 5873 5874 5875 5877 5879 5882 5883 5882 5884 5887 5886 5886 5887 5887 5888 5887 5887 5888 5888 5891 5891 5889 5886 5885 5883 5881 5880 5878 5876 5872 5870 5868 5867 5866 5863 5860 5856 5854 5851 5846 5842 5838 5835 5829
5866 5869 5870 5871 5873 5876 5878 5879 5877 5879 5881 5883 5884 5885 5884 5885 5885 5884 5884 5886 5886 5887 5886 5884 5882 5878 5877 5876 5874 5871 5869 5866 5864 5861 5860 5858 5854 5851 5848 5843 5837 5833 5830 5826 5819
5861 5864 5865 5867 5869 5871 5873 5873 5872 5874 5878 5880 5881 5880 5882 5882 5882 5881 5882 5882 5882 5882 5881 5880 5880 5878 5872 5871 5869 5868 5864 5861 5859 5856 5852 5853 5856 5848 5841 5836 5831 5827 5822 5815 5808
5855 5858 5860 5862 5864 5866 5866 5866 5868 5869 5871 5875 5875 5876 5876 5878 5878 5878 5879 5878 5877 5877 5876 5875 5874 5874 5870 5866 5864 5863 5858 5856 5852 5853 5849 5846 5846 5839 5833 5829 5825 5819 5813 5807 5798
5847 5850 5852 5855 5858 5858 5859 5862 5863 5865 5867 5869 5869 5871 5872 5873 5874 5871 5873 5873 5873 5872 5871 5871 5870 5869 5866 5863 5860 5858 5854 5851 5847 5845 5846 5841 5840 5834 5831 5827 5820 5813 5804 5796 5789
5838 5840 5842 5848 5850 5853 5854 5855 5857 5858 5860 5862 5864 5864 5866 5866 5867 5866 5869 5867 5868 5868 5867 5865 5864 5864 5863 5858 5854 5854 5851 5847 5842 5839 5837 5834 5832 5827 5822 5816 5810 5804 5798 5790 5782
5828 5831 5834 5840 5842 5846 5847 5850 5850 5852 5853 5855 5856 5859 5860 5861 5861 5862 5862 5864 5864 5863 5861 5861 5860 5859 5856 5854 5850 5845 5843 5841 5836 5835 5831 5828 5824 5820 5816 5810 5803 5797 5790 5782 5774
5819 5822 5825 5829 5832 5836 5838 5842 5842 5844 5845 5846 5850 5851 5852 5856 5858 5857 5858 5858 5858 5858 5857 5856 5855 5854 5852 5849 5846 5845 5839 5834 5832 5830 5827 5821 5818 5814 5809 5802 5796 5790 5784 5776 5766
5809 5813 5816 5818 5822 5826 5828 5831 5834 5833 5834 5836 5841 5843 5845 5850 5850 5851 5849 5849 5851 5852 5851 5850 5849 5848 5847 5843 5841 5839 5835 5830 5828 5824 5821 5818 5814 5808 5805 5799 5792 5785 5777 5765 5753